EW4931 Weather Reports


time (UTC)temp
C
wind
direction
speed
KPH
gust
KPH
rain 1hr
cm
rain 24hr
cm
rain mn
cm
humidity
%
barometer
mb
20260509201202 6 141 3.2 4.8 0.00 0.00 0.00 79 1021.6
20260509200702 5 141 3.2 4.8 0.00 0.00 0.00 78 1021.6
20260509200202 6 176 3.2 3.2 0.00 0.00 0.00 78 1021.6
20260509195701 6 176 1.6 3.2 0.00 0.00 0.00 78 1021.6
20260509195201 6 176 1.6 3.2 0.00 0.00 0.00 77 1021.7
20260509194700 6 176 1.6 3.2 0.00 0.00 0.00 76 1021.8
20260509194423 6 176 1.6 4.8 0.00 0.00 0.00 75 1021.8
20260509193700 6 176 1.6 4.8 0.00 0.00 0.00 75 1021.8
20260509193200 6 176 3.2 3.2 0.00 0.00 0.00 74 1021.8
20260509192700 6 176 1.6 3.2 0.00 0.00 0.00 73 1021.9
20260509192200 6 176 1.6 3.2 0.00 0.00 0.00 73 1021.9
20260509191700 6 176 1.6 3.2 0.00 0.00 0.00 72 1021.9
20260509191200 6 176 3.2 3.2 0.00 0.00 0.00 72 1021.9
20260509190700 6 176 3.2 3.2 0.00 0.00 0.00 71 1021.9
20260509190159 7 176 1.6 3.2 0.00 0.00 0.00 71 1021.9
20260509185701 7 176 3.2 3.2 0.00 0.00 0.00 70 1022.1
20260509185201 7 176 1.6 3.2 0.00 0.00 0.00 69 1022.1
20260509184919 7 176 1.6 3.2 0.00 0.00 0.00 69 1022.1
20260509184201 7 176 1.6 3.2 0.00 0.00 0.00 68 1022.2
20260509183700 7 176 1.6 1.6 0.00 0.00 0.00 67 1022.2
20260509183200 8 176 1.6 3.2 0.00 0.00 0.00 66 1022.2
20260509182701 8 176 1.6 3.2 0.00 0.00 0.00 65 1022.3
20260509182200 8 176 1.6 6.4 0.00 0.00 0.00 65 1022.3
20260509181916 8 176 1.6 8.0 0.00 0.00 0.00 65 1022.3
20260509181200 8 176 3.2 8.0 0.00 0.00 0.00 64 1022.3
20260509180700 8 169 3.2 8.0 0.00 0.00 0.00 64 1022.2
20260509180159 8 159 3.2 8.0 0.00 0.00 0.00 63 1022.3
20260509175700 8 157 6.4 11.3 0.00 0.00 0.00 62 1022.3
20260509175417 8 137 6.4 11.3 0.00 0.00 0.00 61 1022.3
20260509174659 8 171 6.4 9.7 0.00 0.00 0.00 60 1022.3
20260509174419 9 197 6.4 9.7 0.00 0.00 0.00 59 1022.3
20260509173659 9 166 3.2 9.7 0.00 0.00 0.00 59 1022.3
20260509173200 9 155 6.4 14.5 0.00 0.00 0.00 58 1022.2
20260509172918 9 183 6.4 14.5 0.00 0.00 0.00 61 1022.3
20260509172159 9 99 6.4 14.5 0.00 0.00 0.00 62 1022.3
20260509172141 10 113 9.7 14.5 0.00 0.00 0.00 60 1022.3
20260509171158 10 155 8.0 11.3 0.00 0.00 0.00 58 1022.3
20260509170659 10 141 6.4 14.5 0.00 0.00 0.00 57 1022.4
20260509170158 10 189 6.4 17.7 0.00 0.00 0.00 53 1022.5
20260509165658 10 138 12.9 17.7 0.00 0.00 0.00 53 1022.4
20260509165158 10 202 9.7 14.5 0.00 0.00 0.00 52 1022.5
20260509164921 10 180 3.2 16.1 0.00 0.00 0.00 53 1022.6
20260509164158 10 123 9.7 16.1 0.00 0.00 0.00 56 1022.6
20260509163658 10 155 8.0 17.7 0.00 0.00 0.00 56 1022.6
20260509163158 10 109 12.9 19.3 0.00 0.00 0.00 56 1022.6
20260509162658 10 100 11.3 19.3 0.00 0.00 0.00 56 1022.7
20260509162158 10 131 12.9 19.3 0.00 0.00 0.00 53 1022.7
20260509161657 10 97 9.7 17.7 0.00 0.00 0.00 53 1022.8
20260509161157 10 178 9.7 17.7 0.00 0.00 0.00 53 1022.8
20260509160658 11 120 8.0 16.1 0.00 0.00 0.00 52 1022.8
20260509160157 11 151 6.4 17.7 0.00 0.00 0.00 52 1023.0
20260509155657 11 100 9.7 17.7 0.00 0.00 0.00 51 1022.9
20260509155414 11 155 8.0 19.3 0.00 0.00 0.00 53 1023.0
20260509154657 10 106 6.4 19.3 0.00 0.00 0.00 53 1023.0
20260509154158 11 128 14.5 19.3 0.00 0.00 0.00 51 1023.1
20260509153917 10 152 12.9 19.3 0.00 0.00 0.00 53 1023.1
20260509153157 11 131 8.0 17.7 0.00 0.00 0.00 53 1023.2
20260509152656 10 110 9.7 17.7 0.00 0.00 0.00 51 1023.2
20260509152156 11 100 9.7 17.7 0.00 0.00 0.00 50 1023.1
20260509151657 11 135 12.9 19.3 0.00 0.00 0.00 51 1023.1
20260509151156 11 120 12.9 22.5 0.00 0.00 0.00 52 1023.3
20260509150656 11 133 11.3 22.5 0.00 0.00 0.00 50 1023.3
20260509150156 11 107 11.3 16.1 0.00 0.00 0.00 51 1023.4
20260509145656 11 114 9.7 22.5 0.00 0.00 0.00 52 1023.3
20260509145426 11 69 14.5 22.5 0.00 0.00 0.00 52 1023.4
20260509144657 11 147 11.3 20.9 0.00 0.00 0.00 52 1023.5
20260509144417 11 152 11.3 22.5 0.00 0.00 0.00 50 1023.5
20260509143922 11 127 14.5 22.5 0.00 0.00 0.00 50 1023.6
20260509143155 11 104 12.9 19.3 0.00 0.00 0.00 50 1023.6
20260509142655 11 138 9.7 22.5 0.00 0.00 0.00 50 1023.7
20260509142156 11 133 16.1 22.5 0.00 0.00 0.00 50 1023.7
20260509141655 11 127 12.9 20.9 0.00 0.00 0.00 49 1023.7
20260509141154 11 90 14.5 20.9 0.00 0.00 0.00 48 1023.8
20260509140655 11 134 14.5 20.9 0.00 0.00 0.00 48 1023.8
20260509140413 11 120 16.1 20.9 0.00 0.00 0.00 48 1023.9
20260509135654 11 182 9.7 24.1 0.00 0.00 0.00 49 1023.9
20260509135414 11 168 12.9 24.1 0.00 0.00 0.00 49 1024.0
20260509134917 12 131 16.1 22.5 0.00 0.00 0.00 46 1024.0
20260509134416 12 151 9.7 20.9 0.00 0.00 0.00 47 1024.0
20260509133654 12 120 11.3 27.4 0.00 0.00 0.00 47 1024.1
20260509133154 12 110 20.9 27.4 0.00 0.00 0.00 45 1024.2
20260509132654 12 124 9.7 24.1 0.00 0.00 0.00 45 1024.2
20260509132154 12 66 11.3 25.7 0.00 0.00 0.00 43 1024.2
20260509131654 12 100 16.1 25.7 0.00 0.00 0.00 42 1024.3
20260509131155 12 83 12.9 22.5 0.00 0.00 0.00 44 1024.3
20260509130654 12 199 8.0 22.5 0.00 0.00 0.00 43 1024.4
20260509130153 12 149 14.5 24.1 0.00 0.00 0.00 43 1024.5
20260509125653 12 111 11.3 24.1 0.00 0.00 0.00 43 1024.5
20260509125420 13 93 9.7 19.3 0.00 0.00 0.00 42 1024.5
20260509124919 13 75 9.7 20.9 0.00 0.00 0.00 43 1024.5
20260509124153 12 149 11.3 22.5 0.00 0.00 0.00 43 1024.5
20260509123911 13 117 16.1 22.5 0.00 0.00 0.00 41 1024.6
20260509123153 13 82 8.0 20.9 0.00 0.00 0.00 43 1024.7
20260509122653 13 144 12.9 22.5 0.00 0.00 0.00 44 1024.6
20260509122152 13 117 12.9 22.5 0.00 0.00 0.00 44 1024.7
20260509121913 13 104 11.3 17.7 0.00 0.00 0.00 43 1024.7
20260509121153 13 134 9.7 17.7 0.00 0.00 0.00 43 1024.8
20260509120652 13 147 6.4 16.1 0.00 0.00 0.00 43 1024.8
20260509120152 13 172 9.7 16.1 0.00 0.00 0.00 43 1024.9
20260509115653 13 212 6.4 22.5 0.00 0.00 0.00 43 1024.8
20260509115418 13 206 9.7 22.5 0.00 0.00 0.00 43 1025.0
20260509115128 13 127 9.7 19.3 0.00 0.00 0.00 42 1025.0
20260509114152 13 157 11.3 19.3 0.00 0.00 0.00 42 1024.9
20260509113652 13 144 11.3 22.5 0.00 0.00 0.00 41 1025.0
20260509113151 13 172 12.9 22.5 0.00 0.00 0.00 41 1025.1
20260509112652 13 169 9.7 16.1 0.00 0.00 0.00 39 1025.1
20260509112151 13 210 3.2 17.7 0.00 0.00 0.00 39 1025.3
20260509111652 13 214 9.7 17.7 0.00 0.00 0.00 38 1025.3
20260509111410 13 192 11.3 16.1 0.00 0.00 0.00 39 1025.3
20260509110650 13 245 9.7 20.9 0.00 0.00 0.00 40 1025.3
20260509110150 13 166 6.4 20.9 0.00 0.00 0.00 39 1025.4
20260509105652 13 223 6.4 19.3 0.00 0.00 0.00 42 1025.4
20260509105152 13 97 11.3 19.3 0.00 0.00 0.00 43 1025.4
20260509104652 13 251 4.8 17.7 0.00 0.00 0.00 46 1025.4
20260509104152 12 172 11.3 17.7 0.00 0.00 0.00 45 1025.5
20260509103652 12 179 8.0 20.9 0.00 0.00 0.00 46 1025.6
20260509103645 12 157 12.9 20.9 0.00 0.00 0.00 46 1025.6
20260509102651 12 162 12.9 20.9 0.00 0.00 0.00 45 1025.5
20260509102151 12 166 9.7 17.7 0.00 0.00 0.00 47 1025.6
20260509101651 13 204 6.4 17.7 0.00 0.00 0.00 47 1025.6
20260509101150 12 183 3.2 19.3 0.00 0.00 0.00 53 1025.6
20260509100649 12 107 12.9 22.5 0.00 0.00 0.00 52 1025.6
20260509100149 12 116 8.0 22.5 0.00 0.00 0.00 52 1025.5
20260509095650 12 79 11.3 20.9 0.00 0.00 0.00 52 1025.6
20260509095413 11 117 9.7 20.9 0.00 0.00 0.00 52 1025.6
20260509094649 12 102 11.3 20.9 0.00 0.00 0.00 52 1025.6
20260509094149 11 83 9.7 19.3 0.00 0.00 0.00 51 1025.6
20260509093649 11 56 11.3 19.3 0.00 0.00 0.00 51 1025.6
20260509093149 12 131 8.0 17.7 0.00 0.00 0.00 52 1025.7
20260509092649 12 142 11.3 17.7 0.00 0.00 0.00 50 1025.7
20260509092149 12 158 9.7 17.7 0.00 0.00 0.00 52 1025.6
20260509091649 12 173 9.7 20.9 0.00 0.00 0.00 52 1025.7
20260509091150 12 86 4.8 20.9 0.00 0.00 0.00 51 1025.8
20260509090648 11 135 12.9 20.9 0.00 0.00 0.00 53 1025.8
20260509090147 11 142 9.7 20.9 0.00 0.00 0.00 52 1025.8
20260509085647 11 85 14.5 24.1 0.00 0.00 0.00 49 1025.8
20260509085147 11 173 14.5 24.1 0.00 0.00 0.00 50 1025.8
20260509084647 11 97 12.9 22.5 0.00 0.00 0.00 50 1025.9
20260509084147 11 114 14.5 22.5 0.00 0.00 0.00 50 1025.8
20260509083909 11 137 14.5 17.7 0.00 0.00 0.00 47 1025.9
20260509083147 12 135 9.7 20.9 0.00 0.00 0.00 47 1025.9
20260509082647 12 103 12.9 20.9 0.00 0.00 0.00 46 1025.9
20260509082146 12 94 11.3 17.7 0.00 0.00 0.00 45 1025.9
20260509081646 12 117 12.9 17.7 0.00 0.00 0.00 47 1026.1
20260509081146 12 212 8.0 17.7 0.00 0.00 0.00 46 1026.2
20260509080646 11 159 14.5 20.9 0.00 0.00 0.00 46 1026.1
20260509080145 11 130 11.3 22.5 0.00 0.00 0.00 46 1026.0
20260509075646 12 172 12.9 22.5 0.00 0.00 0.00 45 1026.2
20260509075145 12 79 12.9 17.7 0.00 0.00 0.00 45 1026.2
20260509074645 12 138 11.3 25.7 0.00 0.00 0.00 46 1026.2
20260509074146 11 133 14.5 25.7 0.00 0.00 0.00 46 1026.3
20260509073645 12 118 9.7 24.1 0.00 0.00 0.00 46 1026.2
20260509073145 12 131 14.5 24.1 0.00 0.00 0.00 48 1026.2
20260509072645 11 189 9.7 19.3 0.00 0.00 0.00 46 1026.2
20260509072146 11 135 16.1 20.9 0.00 0.00 0.00 47 1026.2
20260509071644 12 109 8.0 20.9 0.00 0.00 0.00 47 1026.2
20260509071145 12 171 6.4 14.5 0.00 0.00 0.00 49 1026.2
20260509070645 11 142 6.4 14.5 0.00 0.00 0.00 49 1026.3
20260509070144 11 137 3.2 17.7 0.00 0.00 0.00 54 1026.3
20260509065644 11 109 8.0 17.7 0.00 0.00 0.00 54 1026.3
20260509065145 11 116 6.4 14.5 0.00 0.00 0.00 55 1026.3
20260509064645 11 161 4.8 14.5 0.00 0.00 0.00 56 1026.3
20260509064145 10 99 6.4 9.7 0.00 0.00 0.00 57 1026.3
20260509063644 10 117 6.4 9.7 0.00 0.00 0.00 58 1026.3
20260509063144 10 97 1.6 8.0 0.00 0.00 0.00 59 1026.3
20260509062644 10 165 6.4 14.5 0.00 0.00 0.00 58 1026.3
20260509062410 10 151 8.0 14.5 0.00 0.00 0.00 59 1026.3
20260509061907 10 124 9.7 14.5 0.00 0.00 0.00 58 1026.3
20260509061144 10 82 6.4 11.3 0.00 0.00 0.00 59 1026.3
20260509060643 9 96 8.0 11.3 0.00 0.00 0.00 60 1026.3
20260509060144 9 117 6.4 11.3 0.00 0.00 0.00 60 1026.3
20260509055643 9 120 8.0 11.3 0.00 0.00 0.00 60 1026.3
20260509055143 9 120 4.8 14.5 0.00 0.00 0.00 60 1026.3
20260509054643 9 133 3.2 14.5 0.00 0.00 0.00 61 1026.3
20260509054143 8 138 6.4 17.7 0.00 0.00 0.00 62 1026.4
20260509053643 8 157 3.2 17.7 0.00 0.00 0.00 62 1026.4
20260509053407 8 114 8.0 16.1 0.00 0.00 0.00 61 1026.4
20260509052643 8 111 4.8 16.1 0.00 0.00 0.00 62 1026.4
20260509052143 8 130 6.4 16.1 0.00 0.00 0.00 62 1026.4
20260509051642 8 154 8.0 11.3 0.00 0.00 0.00 63 1026.4
20260509051407 8 110 4.8 9.7 0.00 0.00 0.00 63 1026.4
20260509050643 7 80 6.4 9.7 0.00 0.00 0.00 64 1026.6
20260509050143 7 87 6.4 9.7 0.00 0.00 0.00 64 1026.5
20260509045642 7 104 6.4 9.7 0.00 0.00 0.00 64 1026.5
20260509045141 7 89 4.8 8.0 0.00 0.00 0.00 65 1026.6
20260509044642 6 66 4.8 8.0 0.00 0.00 0.00 66 1026.5
20260509044631 6 103 6.4 8.0 0.00 0.00 0.00 66 1026.5
20260509043642 6 87 4.8 9.7 0.00 0.00 0.00 66 1026.5
20260509043142 6 93 6.4 9.7 0.00 0.00 0.00 67 1026.5
20260509042908 6 80 6.4 8.0 0.00 0.00 0.00 67 1026.5
20260509042141 5 89 6.4 8.0 0.00 0.00 0.00 68 1026.5
20260509041641 5 79 6.4 8.0 0.00 0.00 0.00 68 1026.5
20260509041141 5 83 3.2 6.4 0.00 0.00 0.00 67 1026.4
20260509040642 5 94 4.8 6.4 0.00 0.00 0.00 68 1026.5
20260509040141 5 94 3.2 4.8 0.00 0.00 0.00 68 1026.4
20260509035641 5 102 4.8 4.8 0.00 0.00 0.00 68 1026.5
20260509035141 5 102 3.2 4.8 0.00 0.00 0.00 68 1026.5
20260509034641 5 110 3.2 6.4 0.00 0.00 0.00 68 1026.6
20260509034141 4 111 4.8 6.4 0.00 0.00 0.00 70 1026.6
20260509033640 4 114 4.8 4.8 0.00 0.00 0.00 71 1026.6
20260509033625 3 114 3.2 4.8 0.00 0.00 0.00 72 1026.6
20260509032640 3 114 3.2 4.8 0.00 0.00 0.00 72 1026.6
20260509032406 3 121 3.2 4.8 0.00 0.00 0.00 71 1026.7
20260509031640 3 123 3.2 3.2 0.00 0.00 0.00 71 1026.7
20260509031141 3 123 3.2 3.2 0.00 0.00 0.00 71 1026.7
20260509030640 3 123 3.2 3.2 0.00 0.00 0.00 70 1026.7
20260509030140 3 123 3.2 3.2 0.00 0.00 0.00 70 1026.6
20260509025857 3 123 1.6 3.2 0.00 0.00 0.00 69 1026.6
20260509025139 3 123 1.6 3.2 0.00 0.00 0.00 68 1026.7
20260509024639 3 123 3.2 4.8 0.00 0.00 0.00 69 1026.7
20260509024140 3 123 3.2 4.8 0.00 0.00 0.00 69 1026.6
20260509023639 3 123 3.2 4.8 0.00 0.00 0.00 70 1026.6
20260509023139 3 123 3.2 4.8 0.00 0.00 0.00 70 1026.7
20260509022639 2 123 3.2 3.2 0.00 0.00 0.00 70 1026.6
20260509022356 2 123 1.6 3.2 0.00 0.00 0.00 70 1026.7
20260509021639 2 123 1.6 3.2 0.00 0.00 0.00 69 1026.7
20260509021138 2 123 3.2 3.2 0.00 0.00 0.00 70 1026.7
20260509020639 2 123 3.2 3.2 0.00 0.00 0.00 71 1026.7
20260509020359 2 123 3.2 3.2 0.00 0.00 0.00 71 1026.7
20260509015638 2 123 1.6 3.2 0.00 0.00 0.00 71 1026.8
20260509015138 2 123 0.0 0.0 0.00 0.00 0.00 70 1026.8
20260509014638 2 123 0.0 0.0 0.00 0.00 0.00 70 1026.8
20260509014138 2 123 0.0 0.0 0.00 0.00 0.00 69 1026.7
20260509013638 2 123 0.0 0.0 0.00 0.00 0.00 70 1026.7
20260509013138 2 123 0.0 0.0 0.00 0.00 0.00 70 1026.7
20260509012638 2 123 0.0 0.0 0.00 0.00 0.00 69 1026.8
20260509012406 2 123 0.0 0.0 0.00 0.00 0.00 69 1026.7
20260509011637 2 123 0.0 0.0 0.00 0.00 0.00 71 1026.7
20260509011138 2 123 0.0 0.0 0.00 0.00 0.00 71 1026.7
20260509010638 2 123 0.0 0.0 0.00 0.00 0.00 70 1026.7
20260509010137 2 123 0.0 0.0 0.00 0.00 0.00 70 1026.7
20260509005637 2 123 0.0 0.0 0.00 0.00 0.00 70 1026.7
20260509005137 3 123 0.0 0.0 0.00 0.00 0.00 69 1026.7
20260509004637 3 123 0.0 1.6 0.00 0.00 0.00 69 1026.8
20260509004136 3 123 0.0 1.6 0.00 0.00 0.00 70 1026.8
20260509003637 3 123 1.6 1.6 0.00 0.00 0.00 70 1026.8
20260509003136 3 123 0.0 1.6 0.00 0.00 0.00 69 1026.7
20260509002636 3 123 0.0 0.0 0.00 0.00 0.00 68 1026.7
20260509002136 3 123 0.0 1.6 0.00 0.00 0.00 67 1026.6
20260509001636 3 123 0.0 3.2 0.00 0.00 0.00 67 1026.6
20260509001136 3 123 1.6 3.2 0.00 0.00 0.00 66 1026.7
20260509000636 3 123 1.6 3.2 0.00 0.00 0.00 68 1026.6
20260509000136 2 123 1.6 3.2 0.00 0.00 0.00 69 1026.6
20260508235636 3 123 0.0 0.0 0.00 0.00 0.00 68 1026.6
20260508235135 3 123 0.0 0.0 0.00 0.00 0.00 68 1026.6
20260508234852 3 123 0.0 0.0 0.00 0.00 0.00 68 1026.6
20260508234135 3 123 0.0 0.0 0.00 0.00 0.00 68 1026.6
20260508233859 3 123 0.0 0.0 0.00 0.00 0.00 69 1026.6
20260508233135 3 123 0.0 0.0 0.00 0.00 0.00 69 1026.7
20260508232635 3 123 0.0 0.0 0.00 0.00 0.00 69 1026.8
20260508232135 3 123 0.0 0.0 0.00 0.00 0.00 69 1026.8
20260508231635 3 123 0.0 0.0 0.00 0.00 0.00 70 1026.7
20260508231135 3 123 0.0 0.0 0.00 0.00 0.00 70 1026.8
20260508230635 3 123 0.0 0.0 0.00 0.00 0.00 70 1026.8
20260508230135 3 123 0.0 0.0 0.00 0.00 0.00 69 1026.7
20260508225859 3 123 0.0 0.0 0.00 0.00 0.00 69 1026.7
20260508225135 3 123 0.0 0.0 0.00 0.00 0.00 68 1026.7
20260508224635 3 123 0.0 0.0 0.00 0.00 0.00 67 1026.7
20260508224135 3 123 0.0 0.0 0.00 0.00 0.00 67 1026.7
20260508223635 3 123 0.0 1.6 0.00 0.00 0.00 66 1026.7
20260508223136 3 123 0.0 1.6 0.00 0.00 0.00 66 1026.8
20260508222858 3 123 1.6 1.6 0.00 0.00 0.00 66 1026.8
20260508222136 3 123 1.6 1.6 0.00 0.00 0.00 65 1026.7
20260508221635 3 123 0.0 1.6 0.00 0.00 0.00 63 1026.7
20260508221557 3 123 0.0 3.2 0.00 0.00 0.00 63 1026.8
20260508220135 3 123 1.6 3.2 0.00 0.00 0.00 63 1026.7
20260508215635 3 123 1.6 1.6 0.00 0.00 0.00 63 1026.8
20260508215135 3 123 0.0 1.6 0.00 0.00 0.00 64 1026.8
20260508214903 3 123 0.0 0.0 0.00 0.00 0.00 63 1026.8
20260508214134 3 123 0.0 0.0 0.00 0.00 0.00 65 1026.8
20260508213635 3 123 0.0 0.0 0.00 0.00 0.00 63 1026.9
20260508213134 3 123 0.0 0.0 0.00 0.00 0.00 62 1026.9
20260508212859 3 123 0.0 0.0 0.00 0.00 0.00 62 1027.0
20260508212136 3 123 0.0 0.0 0.00 0.00 0.00 61 1027.0
20260508211634 3 123 0.0 0.0 0.00 0.00 0.00 61 1026.9
20260508211134 3 123 0.0 0.0 0.00 0.00 0.00 60 1026.9
20260508210634 4 123 0.0 0.0 0.00 0.00 0.00 60 1026.9
20260508210133 4 123 0.0 0.0 0.00 0.00 0.00 60 1026.9
20260508205633 4 123 0.0 0.0 0.00 0.00 0.00 59 1026.9
20260508205133 4 123 0.0 1.6 0.00 0.00 0.00 59 1026.9
20260508204631 4 123 0.0 3.2 0.00 0.00 0.00 59 1026.9
20260508204350 4 123 1.6 3.2 0.00 0.00 0.00 59 1026.9
20260508203855 5 123 1.6 3.2 0.00 0.00 0.00 58 1026.7
20260508203131 5 123 1.6 1.6 0.00 0.00 0.00 59 1026.8
20260508202633 5 123 1.6 1.6 0.00 0.00 0.00 59 1026.9
20260508202132 5 123 1.6 1.6 0.00 0.00 0.00 57 1026.8
20260508201633 5 123 0.0 1.6 0.00 0.00 0.00 58 1026.9